sat.trackr.live / text

‹ back to catalog

SCS-01 A

NORAD 63982 · 2025-100A

PAYLOAD ACTIVE UNKNOWN

§ Identity

Operator
Country
PRC
Launch date
2025-05-14
Launch site
JSC
Launch vehicle
Mass (kg)
RCS (m²)

External: N2YO · Heavens-Above · Gunter

§ Orbital elements

Epoch: 2026-09-21T23:20:47.660640Z

Period
94.65 min
Inclination
97.3594°
Eccentricity
0.0028259
Mean motion
15.21378743 rev/d
Perigee alt
482.2 km
Apogee alt
521.1 km
Semi-major
6,879.8 km
B*
2.3201e-4
RAAN
335.5888°
Arg perigee
30.3823°
Mean anomaly
329.9043°
Rev number
7,535

§ Raw data

SCS-01 A1 63982U 25100A   26264.97277385  .00005188  00000+0  23201-3 0  99962 63982  97.3594 335.5888 0028259  30.3823 329.9043 15.21378743 75353

JSON: /api/v1/satellites/63982 · /tle

For live sub-satellite position, see the globe view (requires WebGL).

§ Visibility from observer

Set your observer location to see the next 7 days of passes ≥ 10°. The values pass through the URL so the page stays shareable.

No JS? Fill the form by hand. The geolocation button needs JavaScript.